Regional Weather Roundup
Issued by NWS

Home | Current Version | Previous Version | Text Only | Print | Product List | Glossary Off
Versions: 1 2 3 4 5 6 7 8 9 10 11 12 13 14 15 16 17 18 19 20 21 22 23 24 25 26 27 28 29 30 31 32 33 34 35 36 37 38 39 40 41 42 43 44 45 46 47 48 49 50

000
ASUS43 KMKX 230000
RWRWI

WISCONSIN REGIONAL WEATHER ROUNDUP
NATIONAL WEATHER SERVICE MILWAUKEE/SULLIVAN WI
600 PM CST SAT NOV 22 2014

NOTE: "FAIR" INDICATES FEW OR NO CLOUDS BELOW 12,000 FEET WITH NO
SIGNIFICANT WEATHER AND/OR OBSTRUCTIONS TO VISIBILITY.

WIZ001-002-006>008-014>016-023>028-230100-
NORTHWEST WISCONSIN

CITY           SKY/WX    TMP DP  RH WIND       PRES   REMARKS
SUPERIOR ARPT  CLOUDY    36  32  87 S9        29.62F WCI  29
ASHLAND        CLOUDY    36  31  82 S6        29.67F WCI  31
6HR MIN TEMP:  36; 6HR MAX TEMP:  40;

HAYWARD        CLOUDY    34  30  85 S9        29.65F WCI  27
6HR MIN TEMP:  34; 6HR MAX TEMP:  35;

SIREN          CLOUDY    34  32  95 S12       29.64F FOG     WCI  25
CUMBERLAND     CLOUDY    32  32 100 S8        29.65F FOG     WCI  25
RICE LAKE      CLOUDY    34  33  95 S5        29.69F FOG     WCI  30
CHETEK         CLOUDY    34  34  99 SE3       29.68F FOG
LADYSMITH      CLOUDY    35  34  96 S5        29.70F FOG     WCI  31
EAU CLAIRE     CLOUDY    35  34  96 S6        29.69F FOG     WCI  30
6HR MIN TEMP:  35; 6HR MAX TEMP:  37;

MENOMONIE      CLOUDY    36  35  96 S5        29.69F FOG     WCI  32
NEW RICHMOND   CLOUDY    34  34 100 S8        29.65F FOG     WCI  28
OSCEOLA        CLOUDY    35  35 100 SE6       29.67F FOG     WCI  30
$$

WIZ003>005-009-010-017-018-230100-
NORTH CENTRAL WISCONSIN

CITY           SKY/WX    TMP DP  RH WIND       PRES   REMARKS
MANITOWISH WTR CLOUDY    32  32 100 S8        29.68S WCI  25
ARBOR VITAE    CLOUDY    34  32  92 S5        29.69S WCI  30
WOODRUFF       CLOUDY    34  32  92 S5        29.69S WCI  30
RHINELANDER    CLOUDY    33  32  96 SW7       29.70S FOG     WCI  27
6HR MIN TEMP:  32; 6HR MAX TEMP:  33;

EAGLE RIVER    CLOUDY    32  32  98 S5        29.69S WCI  28
LAND O LAKES   CLOUDY    33  31  94 S6        29.69S WCI  28
PHILLIPS       CLOUDY    33  32  97 S7        29.68F FOG     WCI  27
6HR MIN TEMP:  32; 6HR MAX TEMP:  33;

TOMAHAWK       CLOUDY    34  32  93 CALM      29.70F FOG
MEDFORD        FOG       33  33  99 S6        29.71R VSB 1/4 WCI  27
MERRILL        FOG       34  34 100 CALM      29.71F VSB 3/4
$$

WIZ029-030-035-036-043>047-230100-
CENTRAL WISCONSIN

CITY           SKY/WX    TMP DP  RH WIND       PRES   REMARKS
WAUSAU         FOG       34  34 100 CALM      29.72S VSB 1/4
6HR MIN TEMP:  34; 6HR MAX TEMP:  34;

MOSINEE        FOG       34  34 100 SE5       29.73F VSB 1/8 WCI  30
MARSHFIELD     FOG       36  35  96 S7        29.72S VSB 1   WCI  30
6HR MIN TEMP:  35; 6HR MAX TEMP:  37;

STEVENS POINT  CLOUDY    34  34  99 CALM      29.74F FOG
WAUPACA        CLOUDY    40  38  90 S3        29.76S FOG
WAUTOMA        NOT AVBL
WISC RAPIDS    CLOUDY    37  35  92 S7        29.76R FOG     WCI  32
6HR MIN TEMP:  35; 6HR MAX TEMP:  38;

CAMP DOUGLAS   CLOUDY    39  39 100 S2        29.75R
$$

WIZ011>013-019>022-031-037>040-048>050-230100-
NORTHEAST WISCONSIN

CITY           SKY/WX    TMP DP  RH WIND       PRES   REMARKS
ANTIGO         FOG       33  33 100 SW5       29.72S VSB 1/2 WCI  28
SHAWANO        CLOUDY    38  35  89 CALM      29.76S FOG
OCONTO         CLOUDY    37  37 100 SW5       29.76S WCI  33
STURGEON BAY   CLOUDY    37  36  93 SW8       29.78R WCI  31
6HR MIN TEMP:  37; 6HR MAX TEMP:  37;

GREEN BAY      FOG       37  36  96 S5        29.78R VSB 1/4 WCI  33
6HR MIN TEMP:  37; 6HR MAX TEMP:  38;

MANITOWOC      NOT AVBL
APPLETON         N/A     37  37 100 VRB3      29.78R
CLINTONVILLE   CLOUDY    36  36 100 SW5       29.77R FOG     WCI  32
OSHKOSH        CLOUDY    40  39  97 S6        29.78R FOG
6HR MIN TEMP:  37; 6HR MAX TEMP:  41;

$$

WIZ032>034-041-042-053>061-230100-
SOUTHWEST WISCONSIN

CITY           SKY/WX    TMP DP  RH WIND       PRES   REMARKS
LA CROSSE      CLOUDY    40  38  93 SE5       29.72F FOG
6HR MIN TEMP:  38; 6HR MAX TEMP:  41;

SPARTA         CLOUDY    39  38  99 S3        29.75S FOG
VIROQUA        CLOUDY    39  39 100 S5        29.72F VSB 1/4
BOSCOBEL       CLOUDY    41  39  93 CALM      29.75F FOG
6HR MIN TEMP:  39; 6HR MAX TEMP:  45;

PRAIRIE DU CHI CLOUDY    42  40  91 CALM      29.73S
PLATTEVILLE    CLOUDY    47  46  97 S9        29.77S
$$

WIZ056-057-062-063-064-067-068-230100-
SOUTH CENTRAL WISCONSIN

CITY           SKY/WX    TMP DP  RH WIND       PRES   REMARKS
REEDSBURG      CLOUDY    40  40 100 S3        29.75F FOG
BARABOO/DELLS  CLOUDY    41  40  95 SW3       29.76S FOG
LONE ROCK      NOT AVBL
MINERAL POINT  CLOUDY    46  45  93 S8        29.76S FOG
MADISON        CLOUDY    46  43  89 S8        29.78S
6HR MIN TEMP:  39; 6HR MAX TEMP:  46; 6HR PCP: TRACE;

MIDDLETON      CLOUDY    47  45  93 SW5       29.78S
WATERTOWN      CLOUDY    44  44 100 SW7       29.80R FOG
MONROE         CLOUDY    45  45 100 S13       29.78F FOG
JANESVILLE     NOT AVBL
$$

WIZ051-052-058>065-066-070>072-230100-
SOUTHEAST WISCONSIN

CITY           SKY/WX    TMP DP  RH WIND       PRES   REMARKS
MILWAUKEE      CLOUDY    47  43  86 SW12      29.82R
6HR MIN TEMP:  42; 6HR MAX TEMP:  47;

WAUKESHA       NOT AVBL
MILWAUKEE/TIMM CLOUDY    46  43  87 SW8       29.81S FOG
RACINE         CLOUDY    47  43  86 S8        29.84R
6HR MIN TEMP:  42; 6HR MAX TEMP:  47;

BURLINGTON     CLOUDY    44  42  95 S5        29.82R
KENOSHA        MOCLDY    47  44  90 SW9       29.83R
6HR MIN TEMP:  42; 6HR MAX TEMP:  47; 6HR PCP:  0.01;

FOND DU LAC    CLOUDY    41  39  93 S7        29.79R FOG
6HR MIN TEMP:  38; 6HR MAX TEMP:  42;

SHEBOYGAN      CLOUDY    43  40  89 SW7       29.80R
6HR MIN TEMP:  41; 6HR MAX TEMP:  43;

WEST BEND      CLOUDY    45  39  81 SW8       29.80R
JUNEAU         CLOUDY    40  40  99 S7        29.80R FOG
$$

LSZ147-162-230100-
LAKE SUPERIOR

STATION/POSITION TIME  TEMP    WIND        PRES    WAVE
                       AIR SEA DIR/SP/G            HT/PER
                 (UTC) (F)     (DEG/KT/KT) (MB)    (FT/S)
DEVILS ISLAND    2300   37     230/  3/  3 1005.2F
PORT WING        2300   37     190/  5/ 10 1005.1S
SAXON HARBOR     2300   37     180/  3/  8 1005.1S
$$

LMZ867-665-643>646-230100-
LAKE MICHIGAN

STATION/POSITION TIME  TEMP    WIND        PRES    WAVE
                       AIR SEA DIR/SP/G            HT/PER
                 (UTC) (F)     (DEG/KT/KT) (MB)    (FT/S)
CHAMBERS ISLAND  2300   38     200/  7/ 12 1007.8S
N MID LAKE BUOY  2250   40 42  240/ 19/ 23 1007.8S   7/ 6
NORTHPORT PIER   2300   38     240/  4/ 10 1007.8S
KEWAUNEE LAKESHO 2300   40     260/  4/  5 1007.5R
SHEBOYGAN LAKESH 2300   42 36  190/  7/  7 1009.4R
PORT WASHINGTON  2300   43     200/  4/  7 1009.8S
ATWATER BUOY     2300   46      CALM  /  4 1010.5S
MILWAUKEE LAKESH 2300   46     210/  8/  9   N/A
S MID LAKE BUOY  2250   45 42  190/ 14/ 16 1011.2S   4/ 5
KENOSHA   LAKESH 2300   49     200/ 10/ 12 1010.2F
$$

TC  - TEMPERATURE IN CELSIUS
VSB - VISIBILITY IN STATUTE MILES
WCI - WIND CHILL INDEX
HX  - HEAT INDEX



USA.gov is the U.S. government's official web portal to all federal, state and local government web resources and services.